Location: Mount Cross
(36.6390°N, 79.4878°W)
Time: 00:21:41
(UTC+00:00)

Vanguard 2 Rocket - Pass Details

Date: 23 March 2023
Orbit: 554 x 3314 km, 32.9° (Epoch: 08 June)

Event Time Altitude Azimuth Distance (km) Brightness Sun altitude
Rises 01:13:38 0° 241° (WSW) 3,710 10.7 -21.0°
Reaches altitude 10° 01:15:48 10° 236° (WSW) 3,005 10.0 -21.4°
Maximum altitude 01:23:16 59° 159° (SSE) 1,842 8.1 -22.8°
Enters shadow 01:28:57 34° 97° (E) 2,989 8.9 -23.9°
